Overview Statistics Trail Chart Weather Telemetry Raw packets
 

This is the latest recevied weather packets stored in our database for station/object VK4GDW-13. If no packets are shown the sender has not sent any weather packets the latest 10 day(s).

<< 6 7 8 9 10 11 12 >>
Time Temp. Humidity Pressure Rain* Wind** Luminosity Snow
1788101014 15° C 54% 1029 hPa 0 mm - - -
1788100711 15° C 54% 1029 hPa 0 mm - - -
1788100408 15.56° C 53% 1029 hPa 0 mm - - -
1788100105 15.56° C 53% 1029.2 hPa 0 mm - - -
1788099802 15.56° C 53% 1029.2 hPa 0 mm - - -
1788099499 15.56° C 52% 1029.2 hPa 0 mm - - -
1788099195 15.56° C 52% 1029.3 hPa 0 mm - - -
1788098892 16.11° C 52% 1029.3 hPa 0 mm - - -
1788098589 16.11° C 51% 1029.3 hPa 0 mm - - -
1788098286 16.11° C 51% 1029.3 hPa 0 mm - - -
1788097983 16.67° C 50% 1029.3 hPa 0 mm - - -
1788097680 16.67° C 50% 1029.4 hPa 0 mm - - -
1788097377 16.67° C 50% 1029.3 hPa 0 mm - - -
1788097074 16.67° C 49% 1029.2 hPa 0 mm - - -
1788096771 16.67° C 49% 1029.3 hPa 0 mm - - -
1788096467 17.22° C 49% 1029.1 hPa 0 mm - - -
1788096164 17.22° C 48% 1029.2 hPa 0 mm - - -
1788095861 17.22° C 48% 1029.2 hPa 0 mm - - -
1788095558 17.22° C 48% 1029.3 hPa 0 mm - - -
1788095255 17.22° C 47% 1029.3 hPa 0 mm - - -
1788094952 17.22° C 47% 1029.2 hPa 0 mm - - -
1788094649 17.22° C 46% 1029.1 hPa 0 mm - - -
1788094346 17.22° C 46% 1029.1 hPa 0 mm - - -
1788094043 17.22° C 46% 1029.1 hPa 0 mm - - -
1788093739 16.67° C 45% 1029.2 hPa 0 mm - - -

* Rain since midnight (hover to see other rain measurements)
** Current wind speed in m/s (hover to see current wind gust speed)